Location: Newark
(56.0692°N, 115.8617°E)
Time: 03:24:01
(UTC+00:00)

Transit 2A - Visible Passes

Search period start: 28 May 2020 00:00
Search period end: 07 June 2020 00:00
Orbit: 593 x 965 km, 66.7° (Epoch: 27 May)

Date Brightness Start Highest point End Pass type
(mag) Time Alt. Az. Time Alt. Az. Time Alt. Az.
28 May 6.5 13:58:20 10° NW 14:04:23 89° ENE 14:10:47 10° SE visible
28 May 7.6 15:42:04 10° WNW 15:47:10 28° WSW 15:51:30 14° SSW visible
29 May 7.3 15:07:42 10° NW 15:13:11 36° WSW 15:18:09 13° S visible
30 May 7.1 14:33:24 10° NW 14:39:11 45° WSW 14:44:50 12° S visible
30 May 8.5 16:19:18 10° W 16:21:08 11° W 16:22:59 10° WSW visible
31 May 6.8 13:59:10 10° NW 14:05:07 58° SW 14:11:21 10° SSE visible
31 May 8.4 15:43:50 10° WNW 15:47:20 16° WSW 15:50:53 10° SW visible
01 Jun 8.1 15:09:05 10° WNW 15:13:29 21° WSW 15:17:59 10° SSW visible
02 Jun 7.9 14:34:33 10° WNW 14:39:35 27° WSW 14:44:45 10° SSW visible
03 Jun 7.6 14:00:09 10° NW 14:05:38 34° WSW 14:11:16 10° S visible
04 Jun 8.8 15:12:17 10° W 15:13:30 11° W 15:14:45 10° WSW visible
05 Jun 8.6 14:36:28 10° WNW 14:39:44 15° WSW 14:43:02 10° SW visible
06 Jun 8.4 14:01:37 10° WNW 14:05:53 20° WSW 14:10:14 10° SSW visible
